Weather History for Two Harbors, MN

Change the Weather History Date:

Tuesday, July 23, 2013

  Actual Average Record
Temperature  
Mean Temperature 57 °F -  
Max Temperature 66 °F 75 °F 89 °F (1999)
Min Temperature 48 °F 55 °F 42 °F (2002)
Degree Days  
Heating Degree Days 8    
Growing Degree Days 7 (Base 50)    
Moisture  
Dew Point 48 °F    
Average Humidity 70    
Maximum Humidity 88    
Minimum Humidity 52    
Precipitation  
Precipitation 0.00 in - - ()
Sea Level Pressure  
Sea Level Pressure 29.95 in    
Wind  
Wind Speed 3 mph (ESE)    
Max Wind Speed 10 mph    
Max Gust Speed 18 mph    
Visibility 10 miles    
Events      
Averages and records for this station are not official NWS values.
T = Trace of Precipitation, MM = Missing Value Source: NWS Daily Summary

Daily Weather History Graph

Daily Weather History Graph

Search for Another Location

Airport:

Trip Planner

Search our weather history database for the weather conditions in past years. The results will help you decide how hot, cold, wet, or windy it might be!

Date:

Astronomy

Jul. 23, 2013 Rise Set
Actual Time 5:35 AM CDT 8:50 PM CDT
Civil Twilight 4:58 AM CDT 9:27 PM CDT
Nautical Twilight 4:10 AM CDT 10:15 PM CDT
Astronomical Twilight 3:09 AM CDT 11:15 PM CDT
Moon 9:07 PM CDT (7/23) 6:53 AM CDT (7/23)
Length of Visible Light 16h 28m
Length of Day
15h 14m
Full, 99% of the Moon is Illuminated
Jul 23
Full
Jul 29
Last Quarter
Aug 6
New
Aug 14
First Quarter
Aug 20
Full

Hourly Weather History & Observations

Time (CDT) Temp. Dew Point Humidity Pressure Visibility Wind Dir Wind Speed Gust Speed Precip Events Conditions
12:13 AM 53.6 °F 48.2 °F 82% 29.81 in 10.0 mi Calm Calm - N/A   Clear
12:33 AM 53.6 °F 48.2 °F 82% 29.81 in 10.0 mi Calm Calm - N/A   Scattered Clouds
12:54 AM 53.6 °F 48.2 °F 82% 29.81 in 10.0 mi West 3.5 mph - N/A   Clear
1:13 AM 53.6 °F 48.2 °F 82% 29.82 in 10.0 mi West 3.5 mph - N/A   Clear
1:33 AM 51.8 °F 46.4 °F 82% 29.82 in 10.0 mi Calm Calm - N/A   Clear
1:53 AM 51.8 °F 46.4 °F 82% 29.83 in 10.0 mi Calm Calm - N/A   Clear
2:13 AM 50.0 °F 46.4 °F 87% 29.83 in 10.0 mi Calm Calm - N/A   Clear
2:34 AM 50.0 °F 44.6 °F 82% 29.84 in 10.0 mi Calm Calm - N/A   Clear
2:53 AM 50.0 °F 44.6 °F 82% 29.84 in 10.0 mi NNW 4.6 mph - N/A   Clear
3:13 AM 51.8 °F 46.4 °F 82% 29.85 in 10.0 mi Calm Calm - N/A   Clear
3:34 AM 51.8 °F 46.4 °F 82% 29.86 in 10.0 mi Calm Calm - N/A   Clear
3:53 AM 51.8 °F 46.4 °F 82% 29.87 in 10.0 mi Calm Calm - N/A   Clear
4:13 AM 51.8 °F 46.4 °F 82% 29.87 in 10.0 mi NW 3.5 mph - N/A   Clear
4:34 AM 51.8 °F 46.4 °F 82% 29.88 in 10.0 mi Calm Calm - N/A   Clear
4:53 AM 51.8 °F 46.4 °F 82% 29.88 in 10.0 mi NW 3.5 mph - N/A   Scattered Clouds
5:13 AM 51.8 °F 46.4 °F 82% 29.88 in 10.0 mi NW 3.5 mph - N/A   Scattered Clouds
5:34 AM 51.8 °F 46.4 °F 82% 29.88 in 10.0 mi NW 4.6 mph - N/A   Clear
5:53 AM 51.8 °F 46.4 °F 82% 29.88 in 10.0 mi NW 5.8 mph - N/A   Clear
6:13 AM 51.8 °F 46.4 °F 82% 29.90 in 10.0 mi NW 4.6 mph - N/A   Clear
6:34 AM 51.8 °F 46.4 °F 82% 29.91 in 10.0 mi Calm Calm - N/A   Clear
6:53 AM 53.6 °F 46.4 °F 77% 29.91 in 10.0 mi NW 3.5 mph - N/A   Clear
7:13 AM 55.4 °F 46.4 °F 72% 29.92 in 10.0 mi North 5.8 mph - N/A   Clear
7:33 AM 55.4 °F 46.4 °F 72% 29.93 in 10.0 mi North 5.8 mph - N/A   Clear
7:53 AM 57.2 °F 46.4 °F 67% 29.94 in 10.0 mi North 8.1 mph - N/A   Clear
8:13 AM 57.2 °F 46.4 °F 67% 29.95 in 10.0 mi NNE 5.8 mph - N/A   Clear
8:33 AM 59.0 °F 46.4 °F 63% 29.95 in 10.0 mi North 10.4 mph 18.4 mph N/A   Clear
8:53 AM 59.0 °F 46.4 °F 63% 29.96 in 10.0 mi NNE 9.2 mph - N/A   Clear
9:13 AM 60.8 °F 46.4 °F 59% 29.98 in 10.0 mi North 6.9 mph - N/A   Clear
9:33 AM 62.6 °F 46.4 °F 55% 29.98 in 10.0 mi NNE 8.1 mph - N/A   Clear
9:53 AM 62.6 °F 46.4 °F 55% 29.98 in 10.0 mi North 4.6 mph - N/A   Clear
10:13 AM 62.6 °F 48.2 °F 59% 29.99 in 10.0 mi North 3.5 mph - N/A   Scattered Clouds
10:33 AM 64.4 °F 46.4 °F 52% 30.00 in 10.0 mi NNE 6.9 mph - N/A   Clear
10:53 AM 64.4 °F 48.2 °F 56% 30.00 in 10.0 mi ENE 5.8 mph - N/A   Mostly Cloudy
11:13 AM 64.4 °F 48.2 °F 56% 30.01 in 10.0 mi ESE 3.5 mph - N/A   Mostly Cloudy
11:33 AM 62.6 °F 48.2 °F 59% 30.01 in 10.0 mi SSE 6.9 mph - N/A   Mostly Cloudy
11:53 AM 62.6 °F 48.2 °F 59% 30.02 in 10.0 mi SE 5.8 mph - N/A   Mostly Cloudy
12:13 PM 64.4 °F 48.2 °F 56% 30.01 in 10.0 mi SSE 5.8 mph - N/A   Scattered Clouds
12:34 PM 64.4 °F 48.2 °F 56% 30.01 in 10.0 mi South 5.8 mph - N/A   Clear
12:53 PM 64.4 °F 48.2 °F 56% 30.01 in 10.0 mi SSE 5.8 mph - N/A   Scattered Clouds
1:13 PM 64.4 °F 48.2 °F 56% 30.01 in 10.0 mi ESE 5.8 mph - N/A   Scattered Clouds
1:33 PM 64.4 °F 48.2 °F 56% 30.00 in 10.0 mi SE 8.1 mph - N/A   Clear
1:53 PM 64.4 °F 48.2 °F 56% 30.00 in 10.0 mi SSE 8.1 mph - N/A   Clear
2:13 PM 64.4 °F 48.2 °F 56% 30.00 in 10.0 mi South 5.8 mph - N/A   Clear
2:33 PM 64.4 °F 48.2 °F 56% 30.01 in 10.0 mi SE 8.1 mph - N/A   Clear
2:53 PM 66.2 °F 48.2 °F 52% 30.01 in 10.0 mi SSW 4.6 mph - N/A   Clear
3:13 PM 66.2 °F 48.2 °F 52% 30.01 in 10.0 mi SSE 5.8 mph - N/A   Clear
3:33 PM 66.2 °F 48.2 °F 52% 30.01 in 10.0 mi South 5.8 mph - N/A   Clear
3:53 PM 64.4 °F 48.2 °F 56% 30.01 in 10.0 mi SSE 3.5 mph - N/A   Clear
4:13 PM 64.4 °F 48.2 °F 56% 30.00 in 10.0 mi South 3.5 mph - N/A   Clear
4:33 PM 66.2 °F 50.0 °F 56% 30.00 in 10.0 mi Calm Calm - N/A   Clear
4:53 PM 66.2 °F 50.0 °F 56% 29.99 in 10.0 mi SSE 3.5 mph - N/A   Clear
5:13 PM 66.2 °F 50.0 °F 56% 29.99 in 10.0 mi South 5.8 mph - N/A   Clear
5:33 PM 66.2 °F 50.0 °F 56% 29.99 in 10.0 mi East 5.8 mph - N/A   Clear
5:53 PM 66.2 °F 50.0 °F 56% 29.99 in 10.0 mi South 4.6 mph - N/A   Clear
6:13 PM 64.4 °F 48.2 °F 56% 29.99 in 10.0 mi SSE 5.8 mph - N/A   Clear
6:33 PM 62.6 °F 50.0 °F 63% 29.99 in 10.0 mi Calm Calm - N/A   Clear
6:54 PM 62.6 °F 50.0 °F 63% 30.00 in 10.0 mi SSW 3.5 mph - N/A   Clear
7:13 PM 62.6 °F 50.0 °F 63% 30.00 in 10.0 mi Calm Calm - N/A   Clear
7:33 PM 62.6 °F 51.8 °F 68% 30.00 in 10.0 mi Calm Calm - N/A   Clear
7:54 PM 62.6 °F 51.8 °F 68% 30.00 in 10.0 mi Calm Calm - N/A   Scattered Clouds
8:13 PM 60.8 °F 51.8 °F 72% 30.00 in 10.0 mi Calm Calm - N/A   Clear
8:33 PM 57.2 °F 51.8 °F 82% 30.00 in 10.0 mi Calm Calm - N/A   Clear
8:54 PM 57.2 °F 51.8 °F 82% 30.01 in 10.0 mi WNW 3.5 mph - N/A   Clear
9:13 PM 57.2 °F 51.8 °F 82% 30.01 in 10.0 mi Calm Calm - N/A   Clear
9:33 PM 53.6 °F 50.0 °F 88% 30.01 in 10.0 mi Calm Calm - N/A   Clear
9:53 PM 53.6 °F 48.2 °F 82% 30.01 in 10.0 mi Calm Calm - N/A   Clear
10:13 PM 53.6 °F 48.2 °F 82% 30.01 in 10.0 mi Calm Calm - N/A   Clear
10:34 PM 51.8 °F 46.4 °F 82% 30.01 in 10.0 mi Calm Calm - N/A   Clear
10:53 PM 51.8 °F 46.4 °F 82% 30.01 in 10.0 mi Calm Calm - N/A   Clear
11:13 PM 50.0 °F 46.4 °F 87% 30.01 in 10.0 mi Calm Calm - N/A   Clear
11:34 PM 48.2 °F 44.6 °F 87% 30.01 in 10.0 mi Calm Calm - N/A   Clear
11:53 PM 48.2 °F 44.6 °F 87% 30.01 in 10.0 mi Calm Calm - N/A   Clear